Terminal Aerodrome Forecast
Issued by NWS Aberdeen, SD

Current Version | Previous Version | Text Only | Print | Product List | Glossary On
Versions: 1 2 3 4 5 6 7 8 9 10 11 12 13 14 15 16 17 18 19 20 21 22 23 24 25 26 27 28 29 30 31 32 33 34 35 36 37 38 39 40 41 42 43 44 45 46 47 48 49 50
000
FTUS43 KABR 222300
TAFABR
TAF
KABR 222340Z 2300/2324 06007KT P6SM FEW040 BKN120
     FM230600 05010KT P6SM OVC100
     FM231000 05008KT 4SM BR VCTS BKN010 OVC050CB
     FM231700 09015KT P6SM OVC015=

USA.gov is the U.S. government's official web portal to all federal, state and local government web resources and services.